Regional Weather Roundup
Issued by NWS Green Bay, WI

Home | Current Version | Previous Version | Graphics & Text | Print | Product List | Glossary Off
Versions: 1 2 3 4 5 6 7 8 9 10 11 12 13 14 15 16 17 18 19 20 21 22 23 24 25 26 27 28 29 30 31 32 33 34 35 36 37 38 39 40 41 42 43 44 45 46 47 48 49 50

000
ASUS43 KGRB 031759
RWRGRB

NORTH-CENTRAL AND NORTHEAST WISCONSIN REGIONAL WEATHER ROUNDUP
NATIONAL WEATHER SERVICE GREEN BAY WI
1200 PM CST TUE MAR 03 2015

WIZ005-009-010>012-018-019-031900-
NORTH CENTRAL WISCONSIN

CITY           SKY/WX    TMP DP  RH WIND       PRES   REMARKS
IRONWOOD       CLOUDY    21  19  93 SW13      29.54F VSB 1/2 WCI   9
MANITOWISH WTR NOT AVBL
ARBOR VITAE    NOT AVBL
EAGLE RIVER    NOT AVBL
LAND O LAKES   NOT AVBL
RHINELANDER    SNOW      20  16  84 SW9       29.55F VSB 1/2 WCI   9
PHILLIPS       LGT SNOW  22  17  82 SW8       29.57S
ANTIGO         NOT AVBL
TOMAHAWK       NOT AVBL
MERRILL        NOT AVBL
$$

WIZ013-073-031900-
NORTHEAST WISCONSIN

CITY           SKY/WX    TMP DP  RH WIND       PRES   REMARKS
IRON MOUNTAIN  SNOW      24  21  88 CALM      29.57F VSB 1/4
MARINETTE      CLOUDY    28  25  86 SW7       29.60F
$$

WIZ017-030-035>037-045-031900-
CENTRAL WISCONSIN

CITY           SKY/WX    TMP DP  RH WIND       PRES   REMARKS
MEDFORD        NOT AVBL
WAUSAU         SNOW      22  20  92 SW5       29.58F VSB 1/2
MOSINEE        NOT AVBL
MARSHFIELD     LGT SNOW  24  20  84 SW8       29.60S FOG
WISC RAPIDS    CLOUDY    24  20  84 SW8       29.63F FOG
STEVENS POINT  NOT AVBL
WAUPACA        NOT AVBL
SHAWANO        NOT AVBL
CLINTONVILLE   MIX PCPN  27  25  93 SW9       29.61F
$$

WIZ038-039-048-051-031900-
FOX VALLEY

CITY           SKY/WX    TMP DP  RH WIND       PRES   REMARKS
NWS GREEN BAY  LGT SNOW  28  26  92 SW12      29.62F FOG
APPLETON       NOT AVBL
OSHKOSH        CLOUDY    28  24  85 SW9       29.62S FOG
FOND DU LAC    FRZ RAIN  29  25  85 SW14      29.62S FOG
$$

WIZ022-050-052-031900-
EAST CENTRAL WISCONSIN

CITY           SKY/WX    TMP DP  RH WIND       PRES   REMARKS
STURGEON BAY   CLOUDY    28  25  86 S15       29.62F
MANITOWOC      NOT AVBL
SHEBOYGAN      CLOUDY    30  27  88 S16       29.61F FOG
$$

LMZ563-521-522-541>543-031900-
LAKESHORE

STATION/POSITION TIME  TEMP    WIND        PRES    VSBY  WAVE
                       AIR SEA DIR/SP/G                  HT/PER
                 (UTC) (F)     (DEG/KT/KT) (MB)    (MI)  (FT/S)
SHEBOYGAN LKSHOR 1700   29     180/ 22/ 24 1004.9F
KEWAUNEE LKSHORE 1700   29     190/ 19/ 24 1002.9F
NORTHPORT PIER   1700   27     150/ 14/ 19 1005.4F
CHAMBERS ISLAND  1700   28     170/  3/ 10 1003.7F
MENOMINEE LKSHOR 1700   27     180/  9     1003.9F
$$



USA.gov is the U.S. government's official web portal to all federal, state and local government web resources and services.